Location: Dos Palmas
(32.4468°N, 116.8732°W)
Time: 00:44:21
(UTC+00:00)

CZ-4C R/B - Pass Details

Date: 20 June 2021
Orbit: 606 x 1396 km, 63.4° (Epoch: 01 August)

Event Time Altitude Azimuth Distance (km) Brightness Sun altitude
Exits shadow 11:42:23 10° 267° (W) 2,126 3.8 -11.2°
Reaches altitude 10° 11:42:24 10° 267° (W) 2,119 3.8 -11.1°
Maximum altitude 11:45:56 20° 315° (NW) 1,667 3.7 -10.6°
Drops below altitude 10° 11:49:53 10° 1° (N) 2,417 5.1 -9.9°
Sets 11:53:16 0° 18° (NNE) 3,512 6.4 -9.3°
